Overview Statistics Trail Chart Weather Telemetry Raw packets
 

This is the latest recevied weather packets stored in our database for station/object OK1TBM-13. If no packets are shown the sender has not sent any weather packets the latest 10 day(s).

<< 42 43 44 45 46 47 48 >>
Time Temp. Humidity Pressure Rain* Wind** Luminosity Snow
1788271801 22.22° C 54% 1018.3 hPa 0 mm - 445 W/m² -
1788271502 23.33° C 50% 1018.3 hPa 0 mm - 493 W/m² -
1788271208 22.78° C 54% 1018.3 hPa 0 mm - 208 W/m² -
1788270902 22.22° C 52% 1018.3 hPa 0 mm - 522 W/m² -
1788270602 22.22° C 54% 1018.3 hPa 0 mm - 530 W/m² -
1788270302 22.78° C 51% 1018.3 hPa 0 mm - 132 W/m² -
1788270002 22.78° C 51% 1018.3 hPa 0 mm - 576 W/m² -
1788269702 23.33° C 54% 1018.3 hPa 0 mm - 565 W/m² -
1788269402 23.33° C 51% 1018.3 hPa 0 mm - 592 W/m² -
1788269102 22.78° C 52% 1018.3 hPa 0 mm - 613 W/m² -
1788268802 22.78° C 52% 1018.3 hPa 0 mm - 663 W/m² -
1788268502 22.78° C 54% 1018.3 hPa 0 mm - 703 W/m² -
1788268202 22.22° C 56% 1018.3 hPa 0 mm - 472 W/m² -
1788267902 22.22° C 57% 1018.3 hPa 0 mm - 464 W/m² -
1788267600 22.22° C 56% 1018.3 hPa 0 mm - 491 W/m² -
1788267002 22.78° C 56% 1018.3 hPa 0 mm - 585 W/m² -
1788266708 22.78° C 55% 1018.3 hPa 0 mm - 552 W/m² -
1788266401 22.22° C 56% 1018.3 hPa 0 mm - 610 W/m² -
1788266101 22.22° C 55% 1019 hPa 0 mm - 553 W/m² -
1788265501 21.67° C 57% 1019 hPa 0 mm - 600 W/m² -
1788265201 22.22° C 57% 1019 hPa 0 mm - 592 W/m² -
1788264905 22.22° C 59% 1019 hPa 0 mm - 432 W/m² -
1788264601 21.11° C 61% 1019 hPa 0 mm - 276 W/m² -
1788264302 21.67° C 62% 1019 hPa 0 mm - 412 W/m² -
1788264024 20.56° C 62% 1019 hPa 0 mm - 321 W/m² -

* Rain latest hour (hover to see other rain measurements)
** Current wind speed in m/s (hover to see current wind gust speed)